• In Deutschland
  • Länderverzeichnis
  • Für 7 Tage
  • Wassertemperatur
  • Satellitenkarten
  • Wetterkarte
  • Widgets
  • user-avatar
    Anmelden

    Stündliche Wetter Victoria

    Heute, 31 März, Freitag

    Zeit Temperatur Niederschläge Wind Luftdruck Luftfeuchtigkeit
    00:00 +10°C° 0 mm 2 m/S 753 mmHg 72%
    01:00 +11°C° 0 mm 1 m/S 753 mmHg 75%
    02:00 +10°C° 0 mm 1 m/S 753 mmHg 78%
    03:00 +10°C° 0 mm 1 m/S 753 mmHg 81%
    04:00 +7°C° 0 mm 0 m/S 752 mmHg 89%
    05:00 +8°C° 0 mm 1 m/S 753 mmHg 89%
    06:00 +8°C° 0 mm 1 m/S 753 mmHg 89%
    07:00 +8°C° 0 mm 1 m/S 753 mmHg 89%
    08:00 +11°C° 0 mm 1 m/S 754 mmHg 76%
    09:00 +14°C° 0 mm 1 m/S 754 mmHg 64%
    10:00 +16°C° 0 mm 1 m/S 754 mmHg 51%
    11:00 +18°C° 0 mm 2 m/S 753 mmHg 46%
    12:00 +19°C° 0 mm 2 m/S 753 mmHg 41%
    13:00 +20°C° 0 mm 2 m/S 752 mmHg 36%
    14:00 +21°C° 0 mm 2 m/S 752 mmHg 36%
    15:00 +21°C° 0 mm 2 m/S 751 mmHg 36%
    16:00 +21°C° 0 mm 2 m/S 751 mmHg 36%
    17:00 +20°C° 0 mm 1 m/S 751 mmHg 44%
    18:00 +18°C° 0 mm 1 m/S 751 mmHg 52%
    19:00 +15°C° 0 mm 1 m/S 751 mmHg 60%
    20:00 +14°C° 0 mm 1 m/S 751 mmHg 65%
    21:00 +13°C° 0 mm 1 m/S 752 mmHg 69%
    22:00 +12°C° 0 mm 1 m/S 752 mmHg 74%
    23:00 +11°C° 0 mm 1 m/S 752 mmHg 76%

    Morgen, 1 April, Samstag

    Zeit Temperatur Niederschläge Wind Luftdruck Luftfeuchtigkeit
    00:00 +11°C° 0 mm 1 m/S 752 mmHg 78%
    01:00 +10°C° 0 mm 1 m/S 752 mmHg 81%
    02:00 +10°C° 0 mm 1 m/S 752 mmHg 83%
    03:00 +9°C° 0 mm 1 m/S 752 mmHg 84%
    04:00 +9°C° 0 mm 1 m/S 752 mmHg 86%
    05:00 +9°C° 0 mm 1 m/S 752 mmHg 86%
    06:00 +9°C° 0 mm 1 m/S 752 mmHg 87%
    07:00 +9°C° 0 mm 1 m/S 753 mmHg 87%
    08:00 +12°C° 0 mm 1 m/S 753 mmHg 78%
    09:00 +14°C° 0 mm 2 m/S 753 mmHg 69%
    10:00 +17°C° 0 mm 2 m/S 754 mmHg 60%
    11:00 +18°C° 0 mm 2 m/S 754 mmHg 56%
    12:00 +18°C° 0 mm 2 m/S 754 mmHg 51%
    13:00 +19°C° 0 mm 2 m/S 753 mmHg 47%
    14:00 +19°C° 0 mm 2 m/S 753 mmHg 45%
    15:00 +19°C° 0 mm 3 m/S 753 mmHg 43%
    16:00 +19°C° 0 mm 3 m/S 753 mmHg 42%
    17:00 +18°C° 0 mm 3 m/S 754 mmHg 47%
    18:00 +16°C° 0 mm 2 m/S 754 mmHg 52%
    19:00 +14°C° 0 mm 2 m/S 755 mmHg 57%
    20:00 +13°C° 0 mm 2 m/S 755 mmHg 62%
    21:00 +12°C° 0 mm 2 m/S 756 mmHg 66%
    22:00 +12°C° 0 mm 2 m/S 757 mmHg 71%
    23:00 +10°C° 0 mm 2 m/S 757 mmHg 73%

    übermorgen, 2 April, Sonntag

    Zeit Temperatur Niederschläge Wind Luftdruck Luftfeuchtigkeit
    00:00 +10°C° 0 mm 2 m/S 757 mmHg 75%
    01:00 +10°C° 0 mm 2 m/S 757 mmHg 77%
    02:00 +9°C° 0 mm 2 m/S 757 mmHg 80%
    03:00 +10°C° 0 mm 1 m/S 757 mmHg 82%
    04:00 +10°C° 0 mm 1 m/S 757 mmHg 85%
    05:00 +10°C° 0 mm 1 m/S 758 mmHg 85%
    06:00 +10°C° 0 mm 1 m/S 758 mmHg 85%
    07:00 +9°C° 0 mm 1 m/S 758 mmHg 86%
    08:00 +12°C° 0 mm 2 m/S 759 mmHg 73%
    09:00 +14°C° 0 mm 2 m/S 759 mmHg 61%
    10:00 +17°C° 0 mm 2 m/S 759 mmHg 48%
    11:00 +18°C° 0 mm 2 m/S 759 mmHg 44%
    12:00 +19°C° 0 mm 2 m/S 759 mmHg 41%
    13:00 +20°C° 0 mm 2 m/S 759 mmHg 37%
    14:00 +20°C° 0 mm 2 m/S 758 mmHg 37%
    15:00 +20°C° 0 mm 2 m/S 758 mmHg 37%
    16:00 +20°C° 0 mm 3 m/S 758 mmHg 38%
    17:00 +18°C° 0 mm 2 m/S 759 mmHg 43%
    18:00 +17°C° 0 mm 2 m/S 759 mmHg 48%
    19:00 +15°C° 0 mm 2 m/S 760 mmHg 53%
    20:00 +14°C° 0 mm 2 m/S 760 mmHg 56%
    21:00 +14°C° 0 mm 2 m/S 761 mmHg 60%
    22:00 +13°C° 0 mm 2 m/S 761 mmHg 63%
    23:00 +12°C° 0 mm 2 m/S 761 mmHg 66%

    3 April, Montag

    Zeit Temperatur Niederschläge Wind Luftdruck Luftfeuchtigkeit
    00:00 +10°C° 0 mm 2 m/S 761 mmHg 70%
    01:00 +11°C° 0 mm 1 m/S 761 mmHg 73%
    02:00 +10°C° 0 mm 1 m/S 761 mmHg 76%
    03:00 +9°C° 0 mm 1 m/S 761 mmHg 79%
    04:00 +9°C° 0 mm 1 m/S 760 mmHg 82%
    05:00 +8°C° 0 mm 1 m/S 761 mmHg 82%
    06:00 +8°C° 0 mm 1 m/S 761 mmHg 83%
    07:00 +8°C° 0 mm 1 m/S 761 mmHg 84%
    08:00 +11°C° 0 mm 1 m/S 761 mmHg 70%
    09:00 +14°C° 0 mm 1 m/S 762 mmHg 55%
    10:00 +18°C° 0 mm 1 m/S 762 mmHg 41%
    11:00 +18°C° 0 mm 0 m/S 761 mmHg 36%
    12:00 +21°C° 0 mm 0 m/S 761 mmHg 32%
    13:00 +23°C° 0 mm 0 m/S 760 mmHg 27%
    14:00 +22°C° 0 mm 0 m/S 760 mmHg 26%
    15:00 +24°C° 0 mm 1 m/S 759 mmHg 25%
    16:00 +24°C° 0 mm 1 m/S 758 mmHg 24%
    17:00 +21°C° 0 mm 1 m/S 759 mmHg 30%
    18:00 +19°C° 0 mm 1 m/S 759 mmHg 36%
    19:00 +15°C° 0 mm 1 m/S 759 mmHg 42%
    20:00 +15°C° 0 mm 1 m/S 760 mmHg 48%
    21:00 +14°C° 0 mm 1 m/S 760 mmHg 53%
    22:00 +13°C° 0 mm 1 m/S 760 mmHg 59%
    23:00 +13°C° 0 mm 1 m/S 760 mmHg 65%

    4 April, Dienstag

    Zeit Temperatur Niederschläge Wind Luftdruck Luftfeuchtigkeit
    00:00 +12°C° 0 mm 1 m/S 760 mmHg 70%
    01:00 +11°C° 0 mm 1 m/S 760 mmHg 75%
    02:00 +11°C° 0 mm 1 m/S 760 mmHg 78%
    03:00 +11°C° 0 mm 1 m/S 760 mmHg 81%
    04:00 +10°C° 0 mm 1 m/S 760 mmHg 84%
    05:00 +10°C° 0 mm 1 m/S 760 mmHg 84%
    06:00 +10°C° 0 mm 1 m/S 760 mmHg 85%
    07:00 +10°C° 0 mm 1 m/S 761 mmHg 85%
    08:00 +13°C° 0 mm 1 m/S 761 mmHg 71%
    09:00 +16°C° 0 mm 1 m/S 761 mmHg 57%
    10:00 +19°C° 0 mm 0 m/S 761 mmHg 43%
    11:00 +20°C° 0 mm 0 m/S 760 mmHg 38%
    12:00 +22°C° 0 mm 0 m/S 760 mmHg 33%
    13:00 +24°C° 0 mm 0 m/S 759 mmHg 28%
    14:00 +24°C° 0 mm 0 m/S 758 mmHg 27%
    15:00 +25°C° 0 mm 1 m/S 758 mmHg 27%
    16:00 +25°C° 0 mm 1 m/S 757 mmHg 26%
    17:00 +22°C° 0 mm 1 m/S 757 mmHg 32%
    18:00 +20°C° 0 mm 1 m/S 757 mmHg 39%
    19:00 +16°C° 0 mm 1 m/S 758 mmHg 45%
    20:00 +16°C° 0 mm 1 m/S 758 mmHg 47%
    21:00 +16°C° 0 mm 1 m/S 758 mmHg 49%
    22:00 +15°C° 0 mm 1 m/S 758 mmHg 51%
    23:00 +15°C° 0 mm 1 m/S 758 mmHg 56%

    5 April, Mittwoch

    Zeit Temperatur Niederschläge Wind Luftdruck Luftfeuchtigkeit
    00:00 +14°C° 0 mm 1 m/S 757 mmHg 61%
    01:00 +13°C° 0 mm 1 m/S 757 mmHg 65%
    02:00 +13°C° 0 mm 1 m/S 757 mmHg 69%
    03:00 +12°C° 0 mm 1 m/S 757 mmHg 72%
    04:00 +12°C° 0 mm 1 m/S 757 mmHg 76%
    05:00 +12°C° 0 mm 1 m/S 757 mmHg 77%
    06:00 +12°C° 0 mm 1 m/S 758 mmHg 78%
    07:00 +12°C° 0 mm 1 m/S 758 mmHg 80%
    08:00 +14°C° 0 mm 1 m/S 758 mmHg 69%
    09:00 +18°C° 0 mm 1 m/S 758 mmHg 58%
    10:00 +21°C° 0 mm 1 m/S 758 mmHg 48%
    11:00 +23°C° 0 mm 1 m/S 757 mmHg 41%
    12:00 +23°C° 0 mm 0 m/S 757 mmHg 35%
    13:00 +25°C° 0 mm 0 m/S 756 mmHg 28%
    14:00 +24°C° 0 mm 0 m/S 755 mmHg 27%
    15:00 +24°C° 0 mm 0 m/S 755 mmHg 27%
    16:00 +24°C° 0 mm 0 m/S 754 mmHg 26%
    17:00 +20°C° 0 mm 0 m/S 754 mmHg 35%
    18:00 +17°C° 0 mm 0 m/S 754 mmHg 44%
    19:00 +15°C° 0 mm 1 m/S 754 mmHg 53%
    20:00 +14°C° 0 mm 1 m/S 755 mmHg 54%
    21:00 +14°C° 0 mm 1 m/S 755 mmHg 55%
    22:00 +13°C° 0 mm 1 m/S 755 mmHg 57%
    23:00 +13°C° 0 mm 1 m/S 755 mmHg 57%
    Mehr zeigen